EW8359 Weather Reports


time (UTC)temp
C
wind
direction
speed
KPH
gust
KPH
rain 1hr
cm
rain 24hr
cm
rain mn
cm
humidity
%
barometer
mb
20260505031547 15 213 0.0 11.3 0.00 0.00 0.00 53 1006.0
20260505030043 14 186 0.0 11.3 0.00 0.00 0.00 54 1006.1
20260505024542 12 250 1.6 14.5 0.00 0.00 0.00 61 1006.0
20260505023045 10 213 0.0 0.0 0.00 0.00 0.00 71 1005.9
20260505021542 11 213 0.0 0.0 0.00 0.00 0.00 69 1005.7
20260505020040 11 213 0.0 0.0 0.00 0.00 0.00 67 1005.7
20260505014600 11 213 0.0 0.0 0.00 0.00 0.00 66 1005.5
20260505013042 11 213 0.0 0.0 0.00 0.00 0.00 66 1005.4
20260505011539 12 213 0.0 0.0 0.00 0.00 0.00 64 1005.2
20260505010038 12 213 0.0 0.0 0.00 0.00 0.00 61 1005.0
20260505004542 12 213 0.0 0.0 0.00 0.00 0.00 61 1004.8
20260505003037 13 213 0.0 0.0 0.00 0.00 0.00 59 1004.6
20260505001537 13 213 0.0 0.0 0.00 0.00 0.00 55 1004.4
20260505000040 15 213 0.0 0.0 0.00 0.00 0.00 50 1004.3
20260504234548 16 213 0.0 0.0 0.00 0.00 0.00 44 1004.0
20260504233033 18 211 0.0 0.0 0.00 0.00 0.00 39 1003.9
20260504231527 18 227 0.0 4.8 0.00 0.00 0.00 36 1003.8
20260504230026 19 204 0.0 6.4 0.00 0.00 0.00 34 1003.5
20260504224528 20 193 0.0 9.7 0.00 0.00 0.00 33 1003.3
20260504223025 20 167 0.0 14.5 0.00 0.00 0.00 33 1003.3
20260504221529 20 228 1.6 14.5 0.00 0.00 0.00 32 1003.2
20260504220024 20 147 0.0 14.5 0.00 0.00 0.00 32 1003.2
20260504214523 20 297 4.8 22.5 0.00 0.00 0.00 32 1003.1
20260504213044 20 150 0.0 17.7 0.00 0.00 0.00 33 1003.3
20260504211522 20 199 0.0 24.1 0.00 0.00 0.00 32 1003.3
20260504210026 21 164 1.6 16.1 0.00 0.00 0.00 32 1003.2
20260504204523 21 271 1.6 14.5 0.00 0.00 0.00 31 1003.1
20260504203021 21 254 0.0 14.5 0.00 0.00 0.00 31 1003.1
20260504201525 21 211 0.0 19.3 0.00 0.00 0.00 32 1003.1
20260504200019 21 159 1.6 22.5 0.00 0.00 0.00 31 1003.2
20260504194519 21 238 3.2 17.7 0.00 0.00 0.00 33 1003.3
20260504193017 21 215 0.0 19.3 0.00 0.00 0.00 33 1003.3
20260504191518 21 229 4.8 20.9 0.00 0.00 0.00 36 1003.3
20260504190010 20 204 3.2 17.7 0.00 0.00 0.00 39 1003.3
20260504184514 18 218 0.0 16.1 0.00 0.00 0.00 37 1003.7
20260504183018 18 231 0.0 9.7 0.00 0.00 0.00 38 1003.9
20260504181510 18 290 0.0 12.9 0.00 0.00 0.00 36 1003.7
20260504180010 18 220 0.0 9.7 0.00 0.00 0.00 34 1003.7
20260504174617 18 205 0.0 9.7 0.00 0.00 0.00 34 1003.8
20260504173015 19 196 1.6 20.9 0.00 0.00 0.00 32 1003.9
20260504171510 20 315 4.8 25.7 0.00 0.00 0.00 33 1003.7
20260504110117 7 219 0.0 0.0 0.00 0.00 0.00 71 1007.0
20260504081529 4 236 0.0 0.0 0.00 0.00 0.00 74 1007.0
20260504050009 1 220 0.0 0.0 0.00 0.00 0.00 82 1006.9
20260504044521 1 220 0.0 0.0 0.00 0.00 0.00 82 1006.9
20260504043006 1 220 0.0 0.0 0.00 0.00 0.00 82 1006.8
20260504041502 1 220 0.0 0.0 0.00 0.00 0.00 84 1006.6
20260504040107 1 209 0.0 0.0 0.00 0.00 0.00 83 1006.6
20260504040001 1 209 0.0 0.0 0.00 0.00 0.00 83 1006.6
20260504034603 1 209 0.0 0.0 0.00 0.00 0.00 81 1006.4
20260504033113 1 207 0.0 3.2 0.00 0.00 0.00 81 1006.4